KOMPASS

Satellite information

Favourite Embed

Satellite Type and Status

PAYLOADIN ORBIT

Key statistics

Satellite KOMPASS at a glance.

Uptime

8769

Days in orbit

Revolutions

≈ 13.7

Per day

Orbit

SSO

Sun Synchronous Orbit

Inclination

99.8

Latest

Satellite identification and parameters

Extended collection of information and parameters for KOMPASS.

Object identification

Identified? True

Debris? False

Object name: KOMPASS

International designator: 2001-056B

Object number (NORAD): 27002

Object ID (CCSDS): 27002

Country: COMMONWEALTH OF INDEPENDENT STATES (CIS)

Current information (Y/N): Y

RCS size: MEDIUM

Orbital parameters

Period: 105.062 minutes

Inclination: 99.778 deg

SMA: 7375.497 km

Apoapsis: 1011.216 km

Periapsis: 983.508 km

RAAN: 152.4734 deg

Eccentricy: 0.0018784

Argument of periapsis: 253.6774 deg

Mean anomaly: 218.9804 deg

Mean motion: 13.70616084 rev/day

Mean motion (dot): 0.00000056 rev/day2

B* drag term: 0.00011592 1/REarth

Two-line elements (TLE)

Creation date: Dec. 12, 2025, 7:26 a.m.

Reference frame: TEME

Reference center: EARTH

Epoch: Dec. 11, 2025, 11:43 p.m. UTC

TLE line 0: 0 KOMPASS

TLE line 1: 1 27002U 01056B 25345.98888750 .00000056 00000-0 11592-3 0 9997

TLE line 2: 2 27002 99.7780 152.4734 0018784 253.6774 218.9804 13.70616084200595

Live tracking on map

Real-time ground track for satellite KOMPASS.

In-orbit conjunctions

A list of the most updated potential collisions computed for object KOMPASS.

Target Orbit TCA Probability of collision Miss distance Type
THOR ABLESTAR DEB LEO 2025-12-15 05:34:20 0.0001520405 794.0 (m) DEBRIS
COSMOS 1275 DEB LEO 2025-01-28 11:23:50 0.0002408636 193.0 (m) DEBRIS

Associated space launch

Meteor-3M No.1 is the first and so far only of the Meteor-3M series polar-orbit weather satellites.

KOMPASS was lifted into orbit during the mission ‘Zenit-2 | Meteor-3M No. 1’, on board a Zenit-2 space rocket.

The launch took place on Dec. 10, 2001, 5:18 p.m. from 45/1.

For more information about the launch, click the button.

Launch to space Zenit-2 | Meteor-3M No. 1
Zenit-2 | Meteor-3M No. 1

Agency: N/A

Status: Launch Successful

Launch date: Dec. 10, 2001, 5:18 p.m. UTC

Rocket: Zenit-2

Launch pad: 45/1

Location: Baikonur Cosmodrome, Republic of Kazakhstan

...

Latest news about this satellite

There are no fresh news available about this satellite. Check back as we update our databases every day.


Newsletter sign-up

Weekly statistics, charts and insights to help you stay on top of the space industry.